"Pseudo-MPEC" for C4V28F2

Created 2021 Feb 28 15:07:04 UT using Find_Orb

Click here for an explanation of pseudo-MPECs

 
 Astrometry: 
     C4V28F2  C2021 01 23+IPJf4D\#/oS*='rSuaKp(WW1xiekT$v$.!DBEE/uS9l41F/LKYTF51
     C4V28F2  C2021 01 23\k@ZZ+%4cVlqW6nVpmekX85C8xAstrometryocX$E#DZ])_KF;qLF51
     C4V28F2  C2021 01 23.?]%3J3[bHXG(=Y,c\*wsg\DgR^XK$;*krTXS=[eq(m5;SxQ7OJ$F51
     C4V28F2  C2021 02 07.43217613 07 57.40 +03 02 12.3    ~27Db 20.86GVNEOCPG96
     C4V28F2  C2021 02 07.43728113 07 57.11 +03 02 15.0    ~27Db 21.42GVNEOCPG96
     C4V28F2  C2021 02 07.44238513 07 56.76 +03 02 17.4    ~27Db 20.85GVNEOCPG96
     C4V28F2  C2021 02 07.45218313 07 56.07 +03 02 21.5    ~27Dq 21.37GVNEOCPG96
     C4V28F2  C2021 02 07.46035513 07 55.55 +03 02 24.8    ~27Dq 20.76GVNEOCPG96
     C4V28F2  C2021 02 07.46819013 07 55.02 +03 02 28.5    ~27Dq 21.16GVNEOCPG96
     C4V28F2  C2021 02 07.47616913 07 54.48 +03 02 32.4    ~27Dq 20.94GVNEOCPG96
     C4V28F2  C2021 02 07.53292913 07 50.69 +03 02 57.2    ~27Dq 20.91GVNEOCPG96
     C4V28F2  C2021 02 07.54174913 07 50.07 +03 03 01.1    ~27Dq 21.23GVNEOCPG96
     C4V28F2  C2021 02 07.55022113 07 49.52 +03 03 05.1    ~27Dq 20.66GVNEOCPG96
     C4V28F2  C2021 02 071nk=e*vjbkt-cNepEF\=(ORC]*NtYxyDGDb2(8D)vQm$=cJcEAFOF52
     C4V28F2  C2021 02 07Miredacted;fW`jp9h=8*)@B_e5ps:3\Q\_we2@QC^7g/+ULC:0=F52
     C4V28F2  C2021 02 076o\_S5yfLqqbVnMh5$1MoR\-cw!s;8BwT'PjZqpQhXa7+OLc:S2lF52
     C4V28F2  C2021 02 07jgTSdUYm1^aF2JUt1lY;rBUK.;uVH`eN?3+P5il[aXQ13KwY^8QZF52
     C4V28F2 KC2021 02 08.45170913 06 49.00 +03 09 49.6    ~28BM 20.73GVNEOCPI52
     C4V28F2 KC2021 02 08.45478113 06 48.76 +03 09 50.9    ~28BM 21.25GVNEOCPI52
     C4V28F2 KC2021 02 08.45785213 06 48.62 +03 09 51.8    ~28BM       VNEOCPI52
     C4V28F2 KC2021 02 09.52212413 05 35.14 +03 17 58.8    ~29Cq 21.18GVNEOCPI52
     C4V28F2 KC2021 02 09.52542013 05 34.85 +03 18 00.6    ~29Cq 21.01GVNEOCPI52
     C4V28F2 KC2021 02 09.52871613 05 34.60 +03 18 01.8    ~29Cq 20.62GVNEOCPI52
     C4V28F2 |C2021 02 11G#hIrdYA$yIw2TN!Ct\_,3p@8GyP_+0a.R0ZpD!tC%r/Y0WNlZYfH06
     C4V28F2 |C2021 02 11TK4.Us9?Z!qE[hi7bf4uu4+,bQHwd5QiI_DvxcWy4V5yL?eBS:=BH06
     C4V28F2 KC2021 02 11.47717013 03 14.93 +03 33 20.9    ~2BC7 20.89GVNEOCPI52
     C4V28F2 KC2021 02 11.48221713 03 14.56 +03 33 23.1    ~2BC7 20.72GVNEOCPI52
     C4V28F2 KC2021 02 11.48473913 03 14.36 +03 33 24.4    ~2BC7 21.11GVNEOCPI52
     C4V28F2 |C2021 02 13yJ^*L[na37dL5aKxr$fNmiMsbl;;`37_]vicW7KDN5qcvv;HT'vH807
     C4V28F2 |C2021 02 13J#A2I](/J?Ha;kJs(Oq0ehM;dB?$:ANr;ASC+#b-dXy5+[dF)kMy807
     C4V28F2 |C2021 02 13/p=(t1I)f=K?:0CW=a5v@R;vxDgKwQA:YoL]LUIiZB*D?ab'PX#p807
     C4V28F2 KC2021 02 13.42405213 00 48.59 +03 49 12.4    ~2DBM 21.80GVNEOCPI52
     C4V28F2 KC2021 02 13.42978513 00 48.19 +03 49 15.4    ~2DBM 20.27GVNEOCPI52
     C4V28F2 KC2021 02 13.44376513 00 47.05 +03 49 22.9    ~2DBM 20.16GVNEOCPI52
     C4V28F2 bC2021 02 140rFb=44:?//xY55+D8NY[X#Ts?[Ix9sb1@K(.9w'`Y[uo@?-oxBML01
     C4V28F2 bC2021 02 14w!u2$s%R6kraMZTJaV0@8_i2%w'Ws/3J0/]h(@-lY5L3_gjJb\cQL01
     C4V28F2 bC2021 02 14nh(PF_3LoBc]K$CgJWQj4fZJO2sr:Ir.+i#NR:Sclick2rPC-NxlL01
     C4V28F2  C2021 02 16f^M7h90`-Y2Jg=mDEy8R2e)fb6h6ha\UEclgV'0594V1[T0ZlcFWF51
     C4V28F2  C2021 02 16l2s(U/Kl;/L)f(0v=$dM5E'yYsb+T8$7Gh=4BYCn/v_m*#@sHGs(F51
     C4V28F2  C2021 02 16t5.%D^5Q?:sx7gn!=u:0YP-fQZHKo0+9eCNgI%,=x_.?-/6($B*IF51
     C4V28F2  C2021 02 16b[)1-xull`5@'^hURMcL4MbqQc3sm\5)?jqv\c6q^/^,d63MbG%+F51
     C4V28F2 KC2021 02 19.46380612 52 30.68 +04 41 53.8    ~2JBb 21.23GVNEOCPI52
     C4V28F2 KC2021 02 19.46654212 52 30.40 +04 41 56.3    ~2JBb 20.55GVNEOCPI52
     C4V28F2 KC2021 02 19.46851412 52 30.18 +04 41 57.0    ~2JBb 20.27GVNEOCPI52
     C4V28F2 KC2021 02 20.35275412 51 12.01 +04 50 03.2    ~2K97       VNEOCPI52
     C4V28F2 KC2021 02 20.35634212 51 11.68 +04 50 05.7    ~2K97       VNEOCPI52
     C4V28F2 KC2021 02 20.36078212 51 11.26 +04 50 08.7    ~2K97       VNEOCPI52
     C4V28F2 KC2021 02 20.36437212 51 11.01 +04 50 10.2    ~2K97 20.49GVNEOCPI52
     C4V28F2 |C2021 02 21h+$5An`nbXjDu'oYEX=+B.JJ?$O^0qih-1\%KQh]ufY\l!:d,7r$807
     C4V28F2 |C2021 02 21aBD?L\OC%r*jT0p_RS[f7TY9ICy`oX!kVt=lJaqvEP/26a?qZ,.4807
     C4V28F2 |C2021 02 21e!7bUQW3RHCMf5Q',MLW\4GwTW:'F%\7g7iD$uFGf\SmhereCZtE807
     C4V28F2 KC2021 02 22l049aBXs\9s;O0(AyforEuLGwm)+`?41x:K`6]YrPRg%oFOFkUmBN51
     C4V28F2 KC2021 02 22HPMcWGw7XPQ]6A@I9JUPqOvgXvX3iU\@\yQ)Phsyp:ts-DNgtpKgN51
     C4V28F2 KC2021 02 22NG;kUwekvpuM87-1j$%dwf/S]#bG+d!FU0xtNjwU(hcmXArw^`xkN51
     C4V28F2 KC2021 02 22CXH`SJ'y%lwSnLCE'%3DrEejB*((\M;ufANj'In%b+E-2JtWB@BfN51
     C4V28F2 KC2021 02 22HycOY$JyyRiUY8J8:fC9N0cHg_Bc%9D'8aVq?Zpr2_MEwQ^k[*lkN51
     C4V28F2 KC2021 02 22Gn2,kPe*explanationtlB5mT\=LnymSQQxIg(oXO=k5.uT8oF4*N51
     C4V28F2 KC2021 02 22H'8^DdR=y-HQ+K3@P^u+lp__?+s#-!;EyYQQQ-y\mKTZE*w)(PPhN51
     C4V28F2 KC2021 02 23.33617712 46 37.21 +05 18 11.9    ~2N8b 21.05GVNEOCPI52
     C4V28F2 KC2021 02 23.34012812 46 36.80 +05 18 14.3    ~2N8b 20.78GVNEOCPI52
     C4V28F2 KC2021 02 23.34210412 46 36.73 +05 18 15.8    ~2N8b       VNEOCPI52

Station data:
(807) Cerro Tololo Observatory, La Serena  (S30.169136 W70.805900)  Chile.
(F51) Pan-STARRS 1, Haleakala  (N20.707235 W156.255910)  US/Hawaii.
   Observers N. Primak, A. Schultz, S. Watters, J. Thiel, T. Goggia. Measurer
   PS1 Science Consortium. 1.8-m Ritchey-Chrétien + CCD.
(F52) Pan-STARRS 2, Haleakala  (N20.707384 W156.255910)  US/Hawaii. 1.8-m
   Ritchey-Chrétien + CCD.
(G96) Mt. Lemmon Survey  (N32.442754 W110.788720)  US/Arizona.  Observers T.
   A. Pruyne, B. M. Africano, E. J. Christensen, G. A. Farneth, D. C. Fuls,
   A. R. Gibbs, A. D. Grauer, H. Gröller, J. A. Johnson, R. A. Kowalski, S.
   M. Larson, G. J. Leonard, D. Rankin, R. L. Seaman, F. C. Shelly. 1.5-m
   reflector + 10K CCD.
(H06) RAS Observatory, Mayhill  (N32.903325 W105.528700)  US/New
   Mexico.  Observers E. Guido, G. Sostero, V. Gonano, L. Donato.
(I52) Steward Observatory, Mt. Lemmon Station  (N32.442547 W110.788920)
   US/Arizona.  Observers T. A. Pruyne, B. M. Africano, E. J. Christensen, G.
   A. Farneth, D. C. Fuls, A. R. Gibbs, A. D. Grauer, H. Gröller, J. A.
   Johnson, R. A. Kowalski, S. M. Larson, G. J. Leonard, D. Rankin, R. L.
   Seaman, F. C. Shelly. 1.0-m reflector + CCD.
(L01) Višnjan Observatory, Tičan  (N45.290900 E13.749300)  Croatia.
   Observers K. Korlević, E. Pettarin. Measurer E. Pettarin. 1.0-m f/2.9
   reflector + CCD.
(N51) GROWTH India Telescope, IAO, Hanle  (N32.779244 E78.964610)  India.

Orbital elements:  C4V28F2
   Perihelion 2021 Nov 13.705930 +/- 0.925688 TT = 16:56:32 (JD 2459532.205930)
Epoch 2021 Feb 23.0 TT = JDT 2459268.5                        AutoNEOCP
M 359.99887969 +/- 0.0628584        (J2000 ecliptic)
n   0.00000424 +/-                  Peri.  203.63629 +/- 0.1388455
a3775.64198 +/-                     Node   332.16994 +/- 0.0337568
e   0.9991338 +/- 0.00859344        Incl.  164.61897 +/- 0.0156443
P 231999                   H 14.8   G  0.15   U  6.2  
q 3.27034585 +/- 0.00107918    Q 7548.01363 +/- 3655
From 61 observations 2021 Jan. 23-Feb. 23; mean residual 0".46
Residuals in arcseconds: 
210123 F51  .15-  .38-    210209 I52  .05-  .09+    210219 I52  .11-  .55+    
210123 F51  .13+  .02-    210209 I52  .30-  .23-    210219 I52  .78-  .17+    
210123 F51  .01-  .14-    210211 H06  .54-  .00     210220 I52  1.2+  1.2-    
210207 G96  .62-  .32-    210211 H06  .13-  .08+    210220 I52  1.1+  .73-    
210207 G96  .16+  .12+    210211 I52  .43-  .20+    210220 I52  .79+  .20-    
210207 G96  .05+  .25+    210211 I52  .35-  .02-    210220 I52  1.9+  .69-    
210207 G96  .43-  .01+    210211 I52  .54-  .06+    210221 807  .38-  .47-    
210207 G96  .01-  .31-    210213 807  .13+  .23+    210221 807  .29-  .34-    
210207 G96  .06-  .09-    210213 807  .56+  .49+    210221 807  .03-  .13-    
210207 G96  .12-  .27+    210213 807  .06-  .64+    210222 N51  .62-  .36+    
210207 G96  .25+  .11-    210213 I52  .20+  .49-    210222 N51  .69-  .33+    
210207 G96  .16-  .12-    210213 I52  .90+  .34-    210222 N51  .69-  .34+    
210207 G96  .13+  .12+    210213 I52  .13+  .20+    210222 N51  .66-  .30+    
210207 F52  .12+  .30-    210214 L01  .06+  .39+    210222 N51  1.0-  .09+    
210207 F52  .09+  .12-    210214 L01  .25-  .46+    210222 N51  .67-  .53+    
210207 F52  .49-  .39+    210214 L01  .04+  .53+    210222 N51  .74-  .15-    
210207 F52  .02-  .29-    210216 F51  .01-  .03+    210223 I52  .12+  .28-    
210208 I52  .16+  .38+    210216 F51  .12-  .02+    210223 I52  .36-  .16-    
210208 I52  .27-  .29+    210216 F51  .01-  .10+    210223 I52  1.4+  .20+    
210208 I52  .81+  .20-    210216 F51  .11-  .03+    
210209 I52  .80+  .19-    210219 I52  .44+  .45-    

Ephemerides (geocentric):
Date (UTC) HH   RA              Dec         delta   r     elong  mag " sig PA
---- -- -- --  -------------   -----------  ------ ------ -----  --- ---- ---
2021 02 28 15  12 37 52.552   +06 10 28.01  3.1565 4.0591 152.2 20.9 .531 133
2021 02 28 16  12 37 48.236   +06 10 53.34  3.1559 4.0589 152.2 20.9 .536 133
2021 02 28 17  12 37 43.916   +06 11 18.67  3.1553 4.0587 152.3 20.9 .541 133
2021 02 28 18  12 37 39.594   +06 11 44.01  3.1547 4.0585 152.4 20.9 .546 133
2021 02 28 19  12 37 35.269   +06 12 09.36  3.1541 4.0582 152.4 20.9 .551 133
2021 02 28 20  12 37 30.941   +06 12 34.72  3.1535 4.0580 152.5 20.9 .556 133
2021 02 28 21  12 37 26.611   +06 13 00.09  3.1529 4.0578 152.5 20.8 .562 133
2021 02 28 22  12 37 22.278   +06 13 25.46  3.1523 4.0576 152.6 20.8 .567 133
2021 02 28 23  12 37 17.942   +06 13 50.85  3.1518 4.0574 152.6 20.8 .572 133
2021 03 01 00  12 37 13.603   +06 14 16.24  3.1512 4.0571 152.7 20.8 .577 133
2021 03 01 01  12 37 09.261   +06 14 41.64  3.1506 4.0569 152.8 20.8 .583 133
2021 03 01 02  12 37 04.917   +06 15 07.05  3.1500 4.0567 152.8 20.8 .588 133
2021 03 01 03  12 37 00.570   +06 15 32.47  3.1494 4.0565 152.9 20.8 .593 132
